DW9085 Weather Reports


time (UTC)temp
C
wind
direction
speed
KPH
gust
KPH
rain 1hr
cm
rain 24hr
cm
rain mn
cm
humidity
%
barometer
mb
20260505153025 23 146 1.6 11.3 0.00 0.05 0.05 45 1004.8
20260505151532 23 259 1.6 6.4 0.00 0.05 0.05 44 1005.0
20260505124557 17 92 0.0 8.0 0.00 0.05 0.05 62 1004.9
20260505123054 16 128 0.0 3.2 0.00 0.05 0.05 69 1005.0
20260505121550 15 155 0.0 3.2 0.05 0.05 0.05 75 1005.1
20260505120055 13 312 0.0 0.0 0.05 0.05 0.05 79 1005.1
20260505114547 13 61 0.0 0.0 0.05 0.05 0.05 79 1005.2
20260505113052 13 61 0.0 3.2 0.05 0.05 0.05 79 1005.1
20260505111548 13 249 0.0 4.8 0.00 0.00 0.00 74 1005.1
20260505101544 14 188 0.0 4.8 0.00 0.00 0.00 65 1005.0
20260505100040 13 311 0.0 3.2 0.00 0.00 0.00 67 1004.6
20260505094540 13 37 0.0 4.8 0.00 0.00 0.00 68 1004.3
20260505093050 12 44 0.0 3.2 0.00 0.00 0.00 73 1004.1
20260505091539 11 26 0.0 1.6 0.00 0.00 0.00 77 1004.2
20260505090037 11 26 0.0 0.0 0.00 0.00 0.00 75 1004.2
20260505084536 11 26 0.0 3.2 0.00 0.00 0.00 75 1004.3
20260505083040 11 26 0.0 0.0 0.00 0.00 0.00 73 1004.2
20260505081535 12 26 0.0 0.0 0.00 0.00 0.00 72 1004.2
20260505080035 12 26 0.0 0.0 0.00 0.00 0.00 70 1004.1
20260505074534 12 26 0.0 0.0 0.00 0.00 0.00 68 1004.3
20260505073034 13 26 0.0 0.0 0.00 0.00 0.00 66 1004.2
20260505071534 13 26 0.0 3.2 0.00 0.00 0.00 65 1004.2
20260505070036 14 40 0.0 4.8 0.00 0.00 0.00 63 1004.1
20260505064530 13 223 0.0 4.8 0.00 0.00 0.00 64 1004.1
20260505063029 12 64 0.0 4.8 0.00 0.00 0.00 68 1004.2
20260505061538 12 189 0.0 4.8 0.00 0.00 0.00 69 1004.5
20260505060027 11 136 0.0 0.0 0.00 0.00 0.00 70 1004.6
20260505054540 11 136 0.0 0.0 0.00 0.00 0.00 69 1004.6
20260505053027 11 136 0.0 0.0 0.00 0.00 0.00 69 1004.6
20260505051524 12 136 0.0 0.0 0.00 0.00 0.00 67 1004.6
20260505041517 13 136 0.0 0.0 0.00 0.00 0.00 61 1004.9
20260505040033 13 136 0.0 1.6 0.00 0.00 0.00 60 1004.9
20260505034513 13 136 0.0 3.2 0.00 0.00 0.00 60 1005.0
20260505033015 13 69 0.0 0.0 0.00 0.00 0.00 60 1005.0
20260505031514 13 69 0.0 0.0 0.00 0.00 0.00 59 1005.0
20260505030016 13 69 0.0 0.0 0.00 0.00 0.00 59 1005.1
20260505024512 13 69 0.0 0.0 0.00 0.00 0.00 56 1005.1
20260505023013 14 69 0.0 1.6 0.00 0.00 0.00 54 1005.1
20260505021512 14 69 0.0 1.6 0.00 0.00 0.00 54 1005.3
20260505020013 13 69 0.0 1.6 0.00 0.00 0.00 52 1005.2
20260505014514 14 69 0.0 1.6 0.00 0.00 0.00 53 1005.1
20260505013011 14 69 0.0 0.0 0.00 0.00 0.00 50 1005.1
20260505011511 15 69 0.0 0.0 0.00 0.00 0.00 48 1004.7
20260505010011 15 69 0.0 0.0 0.00 0.00 0.00 46 1004.6
20260505004516 16 69 0.0 1.6 0.00 0.00 0.00 46 1004.4
20260505003011 16 69 0.0 1.6 0.00 0.00 0.00 44 1004.4
20260505001510 17 69 0.0 1.6 0.00 0.00 0.00 43 1004.0
20260505000009 18 69 0.0 1.6 0.00 0.00 0.00 40 1003.8
20260504234511 18 69 0.0 8.0 0.00 0.00 0.00 38 1003.5
20260504233009 19 54 0.0 1.6 0.00 0.00 0.00 35 1003.5
20260504231509 20 54 0.0 4.8 0.00 0.00 0.00 35 1003.0
20260504230009 20 63 0.0 6.4 0.00 0.00 0.00 34 1003.0
20260504224508 20 65 0.0 8.0 0.00 0.00 0.00 33 1003.1
20260504223010 21 269 0.0 6.4 0.00 0.00 0.00 32 1003.1
20260504221509 21 9 0.0 6.4 0.00 0.00 0.00 33 1003.2
20260504220023 21 50 0.0 12.9 0.00 0.00 0.00 31 1003.4
20260504214510 21 69 3.2 11.3 0.00 0.00 0.00 30 1003.5
20260504213009 21 246 1.6 9.7 0.00 0.00 0.00 30 1003.6
20260504211506 21 342 0.0 8.0 0.00 0.00 0.00 31 1003.6
20260504210006 21 61 1.6 11.3 0.00 0.00 0.00 33 1003.6
20260504204507 21 360 1.6 11.3 0.00 0.00 0.00 31 1003.6
20260504203004 21 30 0.0 9.7 0.00 0.00 0.00 30 1003.5
20260504201504 21 264 1.6 11.3 0.00 0.00 0.00 28 1003.6
20260504200005 21 317 1.6 8.0 0.00 0.00 0.00 29 1003.7
20260504194502 21 9 1.6 8.0 0.00 0.00 0.00 30 1004.0
20260504193002 21 292 1.6 14.5 0.00 0.00 0.00 30 1004.1
20260504191559 21 290 3.2 9.7 0.00 0.00 0.00 29 1004.1
20260504190108 21 106 3.2 14.5 0.00 0.00 0.00 32 1004.6
20260504184558 21 128 1.6 12.9 0.00 0.00 0.00 32 1004.6
20260504183102 21 284 1.6 14.5 0.00 0.00 0.00 32 1004.6
20260504181556 20 210 1.6 9.7 0.00 0.00 0.00 34 1005.0
20260504180136 20 338 1.6 9.7 0.00 0.00 0.00 36 1005.1
20260504174553 20 194 3.2 12.9 0.00 0.00 0.00 37 1005.4
20260504173052 19 258 1.6 9.7 0.00 0.00 0.00 32 1005.4
20260504171553 20 20 0.0 11.3 0.00 0.00 0.00 32 1005.7